London-Corbin, KY

2:28 PM EDT on July 21, 2019 (GMT -0400)
London-Corbin / McKee

Weather History for KLOZ - May, 2019

Change the Weather History Date:

Monday, May 6, 2019

  Actual Average Record
Temperature  
Mean Temperature 62 °F 62 °F  
Max Temperature 74 °F 74 °F 88 °F (1959)
Min Temperature 50 °F 51 °F 31 °F (1968)
Degree Days  
Heating Degree Days 3 4  
Month to date heating degree days 9 28  
Since 1 July heating degree days 3989 4129  
Cooling Degree Days 0 2  
Month to date cooling degree days 16 7  
Year to date cooling degree days 28 33  
Growing Degree Days 12 (Base 50)    
Moisture  
Dew Point 53 °F    
Average Humidity 68    
Maximum Humidity 100    
Minimum Humidity 35    
Precipitation  
Precipitation 0.00 in 0.16 in 2.48 in (1984)
Month to date precipitation 2.53 0.94  
Sea Level Pressure  
Sea Level Pressure 30.05 in    
Wind  
Wind Speed 1 mph (ESE)    
Max Wind Speed 10 mph    
Max Gust Speed 14 mph    
Visibility 6 miles    
Events Fog    
T = Trace of Precipitation, MM = Missing Value Source: NWS Daily Summary

Daily Weather History Graph

Daily Weather History Graph

Search for Another Location

Airport or City:

Astronomy

May. 06, 2019 Rise Set
Actual Time 6:36 AM EDT 8:29 PM EDT
Civil Twilight 6:08 AM EDT 8:58 PM EDT
Nautical Twilight 5:34 AM EDT 9:32 PM EDT
Astronomical Twilight 4:57 AM EDT 10:09 PM EDT
Moon 7:58 AM EDT (5/6) 10:25 PM EDT (5/6)
Length of Visible Light 14h 49m
Length of Day
13h 53m
Waxing Crescent, 3% of the Moon is Illuminated
May 6
Waxing Crescent
May 11
First Quarter
May 18
Full
May 26
Last Quarter
Jun 3
New

Hourly Weather History & Observations

Time (EDT) Temp. Dew Point Humidity Pressure Visibility Wind Dir Wind Speed Gust Speed Precip Events Conditions
12:53 AM 54.0 °F 54.0 °F 100% 29.95 in 9.0 mi Calm Calm - N/A   Clear
1:35 AM 52.0 °F 52.0 °F 100% 29.96 in 1.8 mi Calm Calm - N/A   Partly Cloudy
1:39 AM 51.1 °F 51.1 °F 100% 29.96 in 0.8 mi Calm Calm - N/A   Mist
1:53 AM 51.1 °F 51.1 °F 100% 29.96 in 2.5 mi Calm Calm - N/A   Mostly Cloudy
2:00 AM 52.0 °F 52.0 °F 100% 29.97 in 7.0 mi Calm Calm - N/A   Overcast
2:14 AM 51.1 °F 51.1 °F 100% 29.97 in 1.2 mi Calm Calm - N/A   Overcast
2:22 AM 51.1 °F 51.1 °F 100% 29.97 in 0.5 mi Calm Calm - N/A Fog Fog
2:53 AM 51.1 °F 51.1 °F 100% 29.97 in 0.2 mi Calm Calm - N/A Fog Fog
3:53 AM 50.0 °F 50.0 °F 100% 29.98 in 0.5 mi Calm Calm - N/A Fog Fog
4:53 AM 50.0 °F 50.0 °F 100% 29.99 in 0.2 mi Calm Calm - N/A Fog Fog
5:53 AM 50.0 °F 50.0 °F 100% 30.01 in 0.2 mi SE 3.5 mph - N/A Fog Fog
6:53 AM 51.1 °F 51.1 °F 100% 30.04 in 1.0 mi Calm Calm - N/A   Mist
7:02 AM 51.1 °F 51.1 °F 100% 30.06 in 0.5 mi Calm Calm - N/A Fog Fog
7:53 AM 53.1 °F 53.1 °F 100% 30.06 in 0.5 mi Calm Calm - N/A Fog Fog
8:53 AM 54.0 °F 54.0 °F 100% 30.08 in 0.8 mi ESE 3.5 mph - N/A   Mist
9:05 AM 54.0 °F 54.0 °F 100% 30.09 in 1.2 mi Calm Calm - N/A   Overcast
9:15 AM 54.0 °F 54.0 °F 100% 30.09 in 2.5 mi East 3.5 mph - N/A   Overcast
9:36 AM 54.0 °F 54.0 °F 100% 30.10 in 6.0 mi Calm Calm - N/A   Overcast
9:53 AM 55.0 °F 55.0 °F 100% 30.10 in 6.0 mi Calm Calm - N/A   Overcast
10:53 AM 57.9 °F 55.9 °F 93% 30.10 in 10.0 mi Calm Calm - N/A   Overcast
11:04 AM 59.0 °F 55.9 °F 90% 30.12 in 10.0 mi Calm Calm - N/A   Overcast
11:25 AM 61.0 °F 57.0 °F 87% 30.12 in 10.0 mi North - - N/A   Scattered Clouds
11:53 AM 62.1 °F 55.9 °F 80% 30.10 in 10.0 mi Calm Calm - N/A   Clear
12:53 PM 66.0 °F 55.0 °F 68% 30.09 in 10.0 mi WSW 4.6 mph - N/A   Scattered Clouds
1:53 PM 69.1 °F 53.1 °F 57% 30.08 in 10.0 mi Variable 4.6 mph - N/A   Partly Cloudy
2:53 PM 72.0 °F 48.9 °F 44% 30.07 in 10.0 mi Variable 4.6 mph - N/A   Clear
3:53 PM 71.1 °F 48.9 °F 45% 30.06 in 10.0 mi Variable 4.6 mph - N/A   Clear
4:53 PM 73.0 °F 45.0 °F 37% 30.04 in 10.0 mi Calm Calm - N/A   Clear
5:53 PM 73.0 °F 53.1 °F 49% 30.05 in 10.0 mi Variable 5.8 mph - N/A   Clear
6:53 PM 73.0 °F 53.1 °F 49% 30.05 in 10.0 mi East 3.5 mph - N/A   Clear
7:53 PM 70.0 °F 50.0 °F 49% 30.07 in 10.0 mi Calm Calm - N/A   Clear
8:53 PM 64.9 °F 55.0 °F 70% 30.08 in 10.0 mi Calm Calm - N/A   Clear
9:53 PM 60.1 °F 54.0 °F 80% 30.09 in 10.0 mi Calm Calm - N/A   Clear
10:53 PM 57.0 °F 54.0 °F 89% 30.10 in 10.0 mi Calm Calm - N/A   Clear
11:53 PM 55.9 °F 53.1 °F 90% 30.11 in 10.0 mi Calm Calm - N/A   Clear